Lake Istokpoga Weather Center

Moon Phase Calendar



Lake Istokpoga Water Level
Online Cameras

 


      

Current Conditions in Highlands
10/31/2020 4:32:24 AM

67°F
Feels Like 67
Clouds
Humidity
82%
Pressure
30.06"
Wind
6.9 mph (N)
Dew Point
61°F
UV Index
6/10 (High)
Visibility
6 mi

Hourly Forecast

Date & Time Sat, Oct 31
4:00 AM
Sat, Oct 31
5:00 AM
Sat, Oct 31
6:00 AM
Sat, Oct 31
7:00 AM
Sat, Oct 31
8:00 AM
Sat, Oct 31
9:00 AM
Sat, Oct 31
10:00 AM
Sat, Oct 31
11:00 AM
Sat, Oct 31
12:00 PM
Sat, Oct 31
1:00 PM
Sat, Oct 31
2:00 PM
Sat, Oct 31
3:00 PM
Sat, Oct 31
4:00 PM
Sat, Oct 31
5:00 PM
Sat, Oct 31
6:00 PM
Sat, Oct 31
7:00 PM
Sat, Oct 31
8:00 PM
Sat, Oct 31
9:00 PM
Sat, Oct 31
10:00 PM
Sat, Oct 31
11:00 PM
Sun, Nov 1
12:00 AM
Sun, Nov 1
1:00 AM
Sun, Nov 1
2:00 AM
Sun, Nov 1
3:00 AM
Sun, Nov 1
4:00 AM
Sun, Nov 1
5:00 AM
Sun, Nov 1
6:00 AM
Sun, Nov 1
7:00 AM
Sun, Nov 1
8:00 AM
Sun, Nov 1
9:00 AM
Sun, Nov 1
10:00 AM
Sun, Nov 1
11:00 AM
Sun, Nov 1
12:00 PM
Sun, Nov 1
1:00 PM
Sun, Nov 1
2:00 PM
Sun, Nov 1
3:00 PM
Sun, Nov 1
4:00 PM
Sun, Nov 1
5:00 PM
Sun, Nov 1
6:00 PM
Sun, Nov 1
7:00 PM
Sun, Nov 1
8:00 PM
Sun, Nov 1
9:00 PM
Sun, Nov 1
10:00 PM
Sun, Nov 1
11:00 PM
Mon, Nov 2
12:00 AM
Mon, Nov 2
1:00 AM
Mon, Nov 2
2:00 AM
Mon, Nov 2
3:00 AM
Condition
Clouds

Clouds

Clouds

Clouds

Clouds

Clouds

Clouds

Clouds

Clouds

Clouds

Clouds

Clouds

Clouds

Clouds

Clouds

Clouds

Clouds

Clear

Clear

Clouds

Clear

Clear

Clear

Clouds

Clouds

Clear

Clear

Clear

Clear

Clear

Rain

Rain

Rain

Rain

Rain

Rain

Rain

Rain

Rain

Rain

Clouds

Clear

Clear

Clear

Clear

Clear

Clear

Clear
Temperature 67°F69°F70°F71°F72°F72°F74°F76°F77°F78°F78°F80°F81°F80°F78°F75°F74°F73°F73°F72°F72°F72°F72°F72°F72°F71°F71°F72°F72°F75°F79°F81°F83°F84°F84°F84°F83°F81°F79°F76°F75°F75°F74°F74°F73°F72°F71°F70°F
Feels Like 66°F68°F68°F69°F70°F71°F74°F76°F77°F78°F79°F81°F82°F81°F80°F77°F76°F76°F76°F76°F76°F76°F76°F76°F76°F76°F76°F76°F77°F80°F84°F87°F88°F88°F88°F88°F87°F86°F84°F82°F81°F80°F80°F79°F77°F75°F73°F70°F
Cloudiness 90%91%93%95%96%100%98%98%98%99%99%77%63%53%44%41%36%6%9%11%8%7%7%13%12%9%8%9%8%4%16%16%18%19%23%17%18%14%16%12%11%0%0%1%1%0%0%0%
Visibility 6 mi6 mi6 mi6 mi6 mi6 mi6 mi6 mi6 mi6 mi6 mi6 mi6 mi6 mi6 mi6 mi6 mi6 mi6 mi6 mi6 mi6 mi6 mi6 mi6 mi6 mi6 mi6 mi6 mi6 mi6 mi6 mi6 mi6 mi6 mi6 mi6 mi6 mi6 mi6 mi6 mi6 mi6 mi6 mi6 mi6 mi6 mi6 mi
Precipitation 0%0%0%0%0%0%0%0%0%0%2%10%12%18%22%18%18%0%8%11%10%10%6%7%7%7%7%7%7%33%49%74%74%77%85%93%96%95%97%97%73%17%17%15%15%15%15%2%
Humidity 82%73%67%66%66%70%70%70%69%69%70%68%68%69%74%79%82%85%87%89%90%92%92%92%92%94%95%96%96%89%82%74%69%68%69%69%71%73%79%85%87%88%89%89%89%88%87%84%
Dew Point 61°F60°F59°F59°F60°F62°F64°F66°F67°F67°F68°F69°F69°F69°F69°F68°F68°F69°F69°F69°F69°F70°F70°F69°F69°F70°F70°F70°F71°F72°F73°F73°F72°F72°F73°F72°F72°F72°F72°F72°F71°F71°F71°F70°F70°F68°F67°F65°F
Pressure 30.06"30.06"30.06"30.06"30.09"30.12"30.12"30.12"30.12"30.12"30.06"30.06"30.06"30.06"30.06"30.06"30.09"30.09"30.09"30.09"30.09"30.09"30.06"30.06"30.06"30.06"30.06"30.06"30.09"30.09"30.09"30.09"30.09"30.06"30.03"30"29.97"29.97"29.97"30"30.03"30.03"30.03"30.06"30.03"30.03"30.03"30.03"
Wind Speed 8 mph7.9 mph8.4 mph8.5 mph8.4 mph7.9 mph9 mph10 mph10 mph9.8 mph10.2 mph10.6 mph11 mph11.7 mph10.2 mph8.6 mph7.8 mph7.5 mph6.8 mph5.8 mph5.7 mph5.5 mph5.6 mph5.9 mph5.5 mph5.3 mph5 mph5.3 mph5.3 mph6.2 mph6.7 mph6.5 mph6.9 mph7.2 mph7.5 mph7.5 mph7.8 mph7.7 mph7 mph5.9 mph5.3 mph4.9 mph3.8 mph4.1 mph6.1 mph6.9 mph7.8 mph9.4 mph
Wind
Direction
36°
NE
27°
NNE
25°
NNE
31°
NNE
39°
NE
44°
NE
55°
NE
62°
ENE
61°
ENE
60°
ENE
62°
ENE
58°
ENE
58°
ENE
61°
ENE
60°
ENE
59°
ENE
54°
NE
49°
NE
54°
NE
53°
NE
48°
NE
50°
NE
38°
NE
35°
NE
35°
NE
32°
NNE
34°
NE
35°
NE
42°
NE
47°
NE
57°
ENE
73°
ENE
70°
ENE
53°
NE
47°
NE
41°
NE
42°
NE
40°
NE
42°
NE
53°
NE
59°
ENE
66°
ENE
54°
NE

N
345°
NNW
348°
NNW
349°
N
350°
N

Daily Forecast

Date High Low Precip. Humidity
Today
Oct 31

Clouds
80 °F
67 °F
18%
70%
Sunday
Nov 1

Rain
84 °F
71 °F
95%
69%
Monday
Nov 2

Clear
74 °F
61 °F
15%
60%
Tuesday
Nov 3

Clear
75 °F
58 °F
0%
54%
Wednesday
Nov 4

Rain
77 °F
65 °F
35%
59%
Thursday
Nov 5

Rain
80 °F
70 °F
100%
72%
Friday
Nov 6

Rain
77 °F
72 °F
100%
85%
Saturday
Nov 7

Rain
75 °F
72 °F
100%
85%
Sunday
Nov 8

Rain
80 °F
77 °F
100%
80%
Monday
Nov 9

Rain
81 °F
79 °F
84%
77%
Tuesday
Nov 10

Rain
85 °F
78 °F
57%
62%
Wednesday
Nov 11

Rain
86 °F
78 °F
30%
59%
Thursday
Nov 12

Rain
81 °F
77 °F
100%
74%
Friday
Nov 13

Rain
83 °F
75 °F
99%
65%
Saturday
Nov 14

Rain
79 °F
71 °F
92%
70%
Sunday
Nov 15

Clear
69 °F
56 °F
0%
43%


Temperature 8-14 Day Outlook



Precipitation 8-14 Day Outlook




Quick Links
Lake Istokpoga News
Lake Istokpoga Photos
Lake Istokpoga Videos




About Us
Contact Us
Site Map
Search Site
Advertise With Us
   
Istokpoga.LakesOnline.com
THE LAKE ISTOKPOGA WEBSITE

Copyright 2020, Lakes Online
Privacy    |    Legal